Regional Weather Roundup
Issued by NWS Mobile, AL

Home | Current Version | Previous Version | Text Only | Print | Product List | Glossary On
Versions: 1 2 3 4 5 6 7 8 9 10 11 12 13 14 15 16 17 18 19 20 21 22 23 24 25 26 27
000
ASUS44 KMOB 280812
RWRMOB
REGIONAL WEATHER ROUNDUP
NATIONAL WEATHER SERVICE MOBILE AL
300 AM CDT SAT MAY 28 2016

NOTE: "FAIR" INDICATES FEW OR NO CLOUDS BELOW 12,000 FEET WITH NO
      SIGNIFICANT WEATHER AND/OR OBSTRUCTIONS TO VISIBILITY.

  * THESE STATIONS ARE PART OF THE UNIVERSITY OF SOUTH ALABAMA
    MESONET AND ARE NOT UNDER NWS OR FAA QUALITY CONTROL.

ALZ061>064-280900-
COASTAL ALABAMA

CITY           SKY/WX    TMP DP  RH WIND       PRES   REMARKS
MOBILE REG APT CLOUDY    71  69  93 E5        30.00S
BROOKLEY FIELD CLEAR     70  68  93 CALM      30.00S
USA CAMPUS*    NOT AVBL
DOG RIVER*     NOT AVBL


CITY           SKY/WX    TMP DP  RH WIND       PRES   REMARKS
MOUNT VERNON*  NOT AVBL
SARALAND*      NOT AVBL
BAY MINETTE*   NOT AVBL
LOXLEY*        NOT AVBL
ROBERTSDALE*   NOT AVBL
FAIRHOPE*      NOT AVBL
ELBERTA*       NOT AVBL
FOLEY*         NOT AVBL
GRAND BAY*     NOT AVBL
DAUPHIN ISLND* NOT AVBL
BON SCOUR NWR* NOT AVBL
GULF SHORES    CLOUDY    67  67  99 CALM      29.99S

$$

ALZ051>060-280900-
INTERIOR SOUTHWEST AND SOUTH CENTRAL ALABAMA

CITY           SKY/WX    TMP DP  RH WIND       PRES   REMARKS
GREENVILLE     CLOUDY    69  64  84 CALM      30.02S
EVERGREEN      CLOUDY    68  66  93 CALM      30.01F
CASTLEBERRY*   NOT AVBL
ATMORE*        NOT AVBL
DIXIE*         NOT AVBL
ANDALUSIA/OPP  CLOUDY    74  67  78 CALM      30.02R
ANDALUSIA*     NOT AVBL
FLORALA APT    CLOUDY    69  66  90 CALM      30.03
FLORALA*       NOT AVBL

$$

FLZ001>006-280900-
WESTERN FLORIDA PANHANDLE

CITY           SKY/WX    TMP DP  RH WIND       PRES   REMARKS
PENSACOLA      CLOUDY    73  66  78 CALM      29.99S
NAS PENSACOLA  NOT AVBL
MILTON         MOCLDY    65  65 100 N3        30.01R
WHTNG S FIELD    N/A    N/A N/A N/A MISG      30.01R


CITY           SKY/WX    TMP DP  RH WIND       PRES   REMARKS
WALNUT HILL*   NOT AVBL
JAY*           NOT AVBL
DUKE FIELD     CLOUDY    68  65  89 N2        30.00R
CRESTVIEW      CLOUDY    68  66  93 CALM      30.02R
VALPARAISO     MOCLDY    71  65  82 NW2       30.00R
DESTIN         CLOUDY    77  70  79 CALM      30.00R

$$

MSZ076-079-280900-
INTERIOR SOUTHEAST MISSISSIPPI

CITY           SKY/WX    TMP DP  RH WIND       PRES   REMARKS
LEAKESVILLE*   NOT AVBL
AGRICOLA*      NOT AVBL

$$

MARINE OBSERVATIONS

STATION/POSITION TIME  TEMP    WIND        PRES    WAVE
                       AIR SEA DIR/SP/G            HT/PER
                 (UTC) (F)     (DEG/KT/KT) (MB)    (FT/S)
PASCAGOULA       0700   79     170/  8/ 10 1015.1F
PETIT BOIS ISLND 0700   78     170/  8/ 10 1015.8F
GRAND BAY        0600   79     170/  9     1017.0S
KATRINA CUT      0700   78     170/  8     1015.9F
CEDAR POINT      0700   78     160/  6     1015.2
E DAUPHIN ISLAND 0800   78     150/  7/  8 1015.2R
MIDDLE BAY LIGHT 0700   79     160/  7     1015.2F
USCG MOBILE BAY  0700   75 81   CALM  /  1 1015.9F
STATE DOCKS      0700   77 80              1015.3F
MEAHER PARK      0700   74     100/  4     1015.2F
WEEKS BAY        0600   70                   N/A
FORT MORGAN      0700   78     160/  9/ 11 1014.9F
12 S ORANGE BCH  0750   78 80  170/  6/  8 1014.6F   3/ 6
PENSACOLA BAY    0700      81  190/  3/  4 1015.9R
64 S DAUPHIN ISL 0700   78 79  120/ 10/ 12 1015.0F

$$

SELECTED LOCATIONS ACROSS THE REGION

CITY           SKY/WX    TMP DP  RH WIND       PRES   REMARKS
NEW ORLEANS    PTCLDY    76  71  85 SE9       29.96R
GULFPORT       CLOUDY    78  68  71 S6        29.96S
PASCAGOULA AP  CLOUDY    71  69  93 CALM      29.98F
PASCAGOULA*    NOT AVBL
HATTIESBURG    CLOUDY    71  68  90 SE3       29.97F
LAUREL         CLOUDY    70  64  83 SE5       29.97F
MERIDIAN       CLOUDY    73  66  78 SW6       29.97F
JACKSON        CLOUDY    72  67  84 SE14      29.89F
MONTGOMERY     CLOUDY    73  65  75 CALM      30.02F
TROY           CLOUDY    68  66  93 CALM      30.04R
KINSTON*       NOT AVBL
GENEVA*        NOT AVBL
ASHFORD*       NOT AVBL
DOTHAN         PTCLDY    72  63  73 E7        30.06S
PANAMA CITY    PTCLDY    70  66  87 NE3       30.00R

$$





USA.gov is the U.S. government's official web portal to all federal, state and local government web resources and services.